[[{"header":{"parameterUnit":"m.s-1","parameterCategory":1,"la1":30.2991,"la2":30.254,"lo1":-89.0895,"lo2":-89.0444,"dy":0.0017,"dx":0.0017,"nx":28,"ny":28,"refTime":"2025-02-24T09:00:00:Z","depth":0,"parameterNumber":2,"parameterNumberName":"U-component_of_WINDS"},"data":[0,0,0,0,0,0,0,0,0,0,0,0,0,0,0,0,0,0,0,0,0,0,0,0,0,0,0,0,0,0,0,0,0,0,0,0,0,0,0,0,0,0,0,0,0,0,0,0,0,0,0,0,0,0,0,0,0,0,1.8592,1.8591,0,1.8548,1.8547,1.8547,1.8483,1.8482,1.8481,1.848,1.8434,1.8434,1.8434,0,0,0,0,0,0,0,0,0,0,0,0,0,1.862,1.862,1.8592,1.8591,1.8591,1.8548,1.8547,1.8547,1.8483,1.8482,1.8481,1.8479,1.8434,1.8434,1.8434,0,0,0,0,0,0,0,0,0,0,0,0,0,1.8595,1.862,1.8592,1.8554,1.855,1.8548,1.8547,1.8547,1.8484,1.8482,1.848,1.8479,1.8434,1.8434,1.8434,1.8466,0,0,1.8433,1.8433,0,0,0,0,0,0,0,0,1.8597,1.8594,1.856,1.8556,1.8552,1.8519,1.8541,1.8519,1.8484,1.8509,1.848,1.8478,1.8464,1.8461,1.8457,1.8463,1.8461,1.8433,1.8433,1.8433,1.8433,0,0,0,0,0,0,0,1.8599,1.8596,1.8574,1.8559,1.8555,1.8539,1.8534,1.8536,1.8496,1.8506,1.8502,1.8497,1.8461,1.8457,1.8455,1.8461,1.8433,1.8433,1.8433,1.8433,1.8493,1.8495,0,0,0,0,0,0,1.8606,1.8598,1.8576,1.8573,1.8571,1.854,1.8534,1.8531,1.8496,1.8489,1.8499,1.8495,1.8458,1.8455,1.8453,1.8489,1.8433,1.8433,1.8432,1.8491,1.8494,1.8495,0,0,0,0,0,0,1.8607,1.8605,1.8577,1.8584,1.8579,1.8541,1.8539,1.8531,1.8527,1.849,1.8483,1.8502,1.8457,1.8454,1.8463,1.8486,1.8432,1.8432,1.8489,1.8492,1.8495,1.856,0,0,0,0,0,0,1.8608,1.8605,1.8617,1.8585,1.8579,1.8588,1.854,1.8532,1.8527,1.8521,1.8491,1.8484,1.8455,1.8464,1.8463,1.8485,1.8432,1.8487,1.8491,1.8494,1.8555,1.8564,1.8572,0,0,0,0,0,1.8609,1.8636,1.8618,1.8615,1.8593,1.859,1.8587,1.8553,1.8529,1.854,1.8517,1.8485,1.8484,1.8466,1.8464,1.8486,1.8485,1.849,1.8493,1.8552,1.8563,1.8572,0,0,0,0,0,0,1.8671,1.8631,1.861,1.8628,1.8613,1.8579,1.8592,1.8565,1.8556,1.8551,1.8509,1.8503,1.8519,1.8503,1.8483,1.8516,1.848,1.8484,1.8525,1.8535,1.8543,1.8546,1.8432,0,0,0,0,0,1.8687,1.8688,1.8653,1.8672,1.8666,1.8631,1.8628,1.8603,1.8586,1.8579,1.8556,1.8541,1.8537,1.8535,1.8529,1.8553,1.8546,1.8568,1.8576,1.8583,1.8587,1.8599,1.8609,1.8509,1.8509,1.8508,0,0,1.872,1.8698,1.8701,1.8684,1.867,1.8672,1.8626,1.8629,1.8631,1.858,1.8588,1.8571,1.8551,1.8568,1.8575,1.8556,1.8613,1.8588,1.8594,1.8594,1.8604,1.8614,1.8622,1.8511,1.8511,1.851,0,0,1.878,1.8764,1.8778,1.8765,1.8744,1.872,1.8724,1.8695,1.8682,1.869,1.8652,1.8653,1.8647,1.8634,1.8627,1.8685,1.8656,1.8685,1.8728,1.8741,1.8749,1.8755,1.8777,1.8785,1.8689,1.8689,1.8689,0,1.8823,1.8825,1.8789,1.8796,1.879,1.8745,1.8759,1.8748,1.8726,1.8723,1.8703,1.8696,1.8679,1.8693,1.8708,1.8703,1.8706,1.8688,1.875,1.8757,1.8763,1.8783,1.8791,1.8692,1.8692,1.8692,1.8691,0,1.8879,1.8881,1.8895,1.8876,1.8872,1.8883,1.8849,1.8849,1.8825,1.8805,1.8814,1.8792,1.8782,1.8784,1.876,1.8796,1.8785,1.8758,1.8721,1.8777,1.8795,1.8802,1.8698,1.8696,1.8695,1.8694,0,0,1.8976,1.8938,1.8944,1.8935,1.891,1.8911,1.892,1.8911,1.8912,1.8899,1.8906,1.8903,1.8879,1.8871,1.8846,1.8857,1.8906,1.8829,1.8828,1.8844,1.8944,1.8964,1.8974,1.8887,1.8888,1.8889,1.8946,0,1.9031,1.9045,1.9014,1.9035,1.9037,1.8995,1.9003,1.8989,1.897,1.8969,1.8948,1.8947,1.8915,1.891,1.892,1.8898,1.8925,1.8893,1.8893,1.8893,1.8899,1.8983,1.9004,1.9059,1.8953,1.8954,1.8955,0,1.9097,1.9089,1.9111,1.9085,1.9085,1.9093,1.9082,1.9082,1.9065,1.9051,1.9043,1.9014,1.9022,1.8988,1.8999,1.8978,1.8976,1.8966,1.8967,1.8965,1.8927,1.8984,1.9075,1.9084,1.8965,1.8965,1.8964,0,1.9167,1.916,1.9173,1.9167,1.9137,1.9144,1.9132,1.9113,1.911,1.9102,1.9099,1.9092,1.9087,1.9082,1.9052,1.903,1.9067,1.903,1.9056,1.9057,1.9065,1.9065,1.9158,1.9064,1.9064,1.9064,1.9064,0,1.9232,1.9247,1.9204,1.9212,1.9228,1.9192,1.9209,1.9193,1.9178,1.9182,1.9145,1.915,1.911,1.9111,1.9088,1.9101,1.9099,1.9088,1.9082,1.9091,1.9093,1.9089,1.9085,1.9066,1.9066,1.9065,1.9065,0,1.9311,1.9283,1.9294,1.9266,1.9259,1.9272,1.9248,1.9255,1.9234,1.924,1.924,1.9208,1.9207,1.9177,1.9169,1.9154,1.9177,1.9163,1.9183,1.9178,1.9206,1.9204,1.93,1.9311,1.9211,1.9212,1.9213,0,1.9355,1.9366,1.9339,1.9339,1.9329,1.933,1.9327,1.9293,1.9292,1.9275,1.9283,1.928,1.9275,1.9276,1.9252,1.9247,1.9233,1.9267,1.9232,1.9242,1.9234,1.9234,1.9235,1.9274,1.9275,1.9276,1.9277,0,1.9435,1.9421,1.9418,1.9411,1.9409,1.9401,1.9391,1.9394,1.9357,1.9357,1.9356,1.9353,1.9346,1.9343,1.9334,1.9322,1.9294,1.9289,1.9295,1.9304,1.9315,1.931,1.9203,1.9287,1.9286,1.9285,1.9284,1.9284,1.9498,1.9506,1.9489,1.9487,1.9477,1.9469,1.9474,1.9455,1.9454,1.9446,1.9426,1.9429,1.9413,1.9397,1.9388,1.939,1.9373,1.9381,1.9383,1.9386,1.9391,1.9316,1.9388,1.9388,1.9387,1.9387,1.9387,0,1.9577,1.9564,1.9563,1.9551,1.955,1.9525,1.9513,1.9514,1.9517,1.9505,1.9501,1.9501,1.9499,1.9475,1.947,1.9476,1.9464,1.9476,1.9475,1.9473,1.9407,1.9402,1.9487,1.9487,1.9487,1.9487,1.9487,1.9487,1.9617,1.963,1.9615,1.9622,1.9609,1.9612,1.9608,1.9601,1.9591,1.9592,1.959,1.9575,1.9559,1.9553,1.955,1.9543,1.9543,1.956,1.9549,1.9487,1.9478,1.9469,1.9464,1.956,1.9561,1.9616,1.9616,1.9617]},{"header":{"parameterUnit":"m.s-1","parameterCategory":1,"la1":30.2991,"la2":30.254,"lo1":-89.0895,"lo2":-89.0444,"dy":0.0017,"dx":0.0017,"nx":28,"ny":28,"refTime":"2025-02-24T09:00:00:Z","depth":0,"parameterNumber":3,"parameterNumberName":"V-component_of_WINDS"},"data":[0,0,0,0,0,0,0,0,0,0,0,0,0,0,0,0,0,0,0,0,0,0,0,0,0,0,0,0,0,0,0,0,0,0,0,0,0,0,0,0,0,0,0,0,0,0,0,0,0,0,0,0,0,0,0,0,0,0,-2.3604,-2.3605,0,-2.3718,-2.3719,-2.372,-2.3734,-2.3733,-2.3732,-2.3731,-2.3846,-2.385,-2.3854,0,0,0,0,0,0,0,0,0,0,0,0,0,-2.3398,-2.3401,-2.3603,-2.3605,-2.3606,-2.3717,-2.3719,-2.3721,-2.3734,-2.3733,-2.3731,-2.373,-2.3845,-2.385,-2.3855,0,0,0,0,0,0,0,0,0,0,0,0,0,-2.3497,-2.3403,-2.3603,-2.3627,-2.363,-2.3717,-2.3719,-2.3721,-2.3734,-2.3733,-2.3731,-2.3729,-2.3843,-2.3849,-2.3855,-2.3927,0,0,-2.3874,-2.3877,0,0,0,0,0,0,0,0,-2.3491,-2.3504,-2.3622,-2.3625,-2.3629,-2.371,-2.3689,-2.379,-2.3735,-2.3695,-2.373,-2.3729,-2.3802,-2.3811,-2.3837,-2.3932,-2.3937,-2.3875,-2.3878,-2.3881,-2.3883,0,0,0,0,0,0,0,-2.3484,-2.35,-2.3649,-2.3623,-2.3628,-2.3631,-2.3644,-2.3708,-2.3756,-2.3698,-2.3699,-2.3713,-2.3804,-2.3831,-2.3839,-2.3939,-2.3875,-2.388,-2.3884,-2.3886,-2.4102,-2.4104,0,0,0,0,0,0,-2.3473,-2.3494,-2.3645,-2.3652,-2.3555,-2.3636,-2.365,-2.3685,-2.3756,-2.3765,-2.3714,-2.3713,-2.3821,-2.3832,-2.3843,-2.3934,-2.3881,-2.3887,-2.389,-2.41,-2.4102,-2.4104,0,0,0,0,0,0,-2.3469,-2.3487,-2.364,-2.3573,-2.3593,-2.3642,-2.3681,-2.3689,-2.3716,-2.3768,-2.3776,-2.3733,-2.382,-2.3835,-2.3907,-2.3938,-2.389,-2.3895,-2.4097,-2.4101,-2.4103,-2.4113,0,0,0,0,0,0,-2.3463,-2.3485,-2.3512,-2.3574,-2.3597,-2.3702,-2.3683,-2.3692,-2.3726,-2.3726,-2.3787,-2.3796,-2.382,-2.3897,-2.3913,-2.3945,-2.39,-2.4095,-2.4099,-2.4102,-2.4111,-2.4116,-2.4122,0,0,0,0,0,-2.3455,-2.351,-2.3514,-2.3532,-2.3632,-2.3703,-2.3716,-2.3743,-2.3729,-2.3757,-2.3791,-2.3794,-2.3932,-2.3905,-2.3922,-2.3957,-2.4093,-2.4098,-2.4102,-2.4108,-2.4115,-2.4121,0,0,0,0,0,0,-2.345,-2.3518,-2.3523,-2.3599,-2.3646,-2.3706,-2.3742,-2.3749,-2.38,-2.3798,-2.3828,-2.3842,-2.3913,-2.3942,-2.3911,-2.4031,-2.4011,-2.4019,-2.401,-2.4017,-2.4022,-2.4014,-2.3905,0,0,0,0,0,-2.3458,-2.351,-2.3567,-2.3629,-2.3652,-2.3693,-2.3725,-2.3742,-2.379,-2.381,-2.3849,-2.3896,-2.395,-2.3985,-2.4037,-2.4115,-2.4129,-2.4148,-2.4153,-2.4157,-2.4164,-2.4209,-2.4218,-2.4119,-2.4119,-2.4119,0,0,-2.3474,-2.3518,-2.3549,-2.3629,-2.3666,-2.372,-2.3709,-2.3766,-2.3806,-2.3818,-2.3889,-2.392,-2.3974,-2.405,-2.4085,-2.4076,-2.4195,-2.4163,-2.4166,-2.4171,-2.4215,-2.4224,-2.4232,-2.4122,-2.4122,-2.4121,0,0,-2.3532,-2.357,-2.3626,-2.3665,-2.3723,-2.375,-2.3764,-2.3823,-2.3844,-2.3916,-2.3926,-2.3975,-2.4067,-2.4106,-2.4138,-2.4213,-2.4218,-2.4229,-2.4258,-2.4301,-2.4309,-2.4316,-2.4344,-2.4353,-2.4236,-2.4236,-2.4236,0,-2.3545,-2.3626,-2.3654,-2.3712,-2.3747,-2.3761,-2.3819,-2.3855,-2.3927,-2.3951,-2.394,-2.4058,-2.4095,-2.4181,-2.42,-2.4224,-2.4242,-2.4222,-2.4305,-2.4313,-2.432,-2.4347,-2.4357,-2.4237,-2.4237,-2.4236,-2.4236,0,-2.364,-2.3697,-2.3736,-2.3806,-2.3845,-2.3902,-2.394,-2.3976,-2.399,-2.4019,-2.4092,-2.4138,-2.4202,-2.4223,-2.4236,-2.4311,-2.4304,-2.4299,-2.428,-2.433,-2.4356,-2.4366,-2.4238,-2.4238,-2.4237,-2.4237,0,0,-2.3697,-2.3783,-2.3797,-2.383,-2.3895,-2.394,-2.3998,-2.4061,-2.4092,-2.4141,-2.4192,-2.4271,-2.4267,-2.4303,-2.4321,-2.4359,-2.4417,-2.435,-2.4352,-2.4362,-2.4505,-2.4509,-2.452,-2.4421,-2.4423,-2.4425,-2.4501,0,-2.3763,-2.3868,-2.3896,-2.3985,-2.4038,-2.4054,-2.4105,-2.4151,-2.4179,-2.4229,-2.4261,-2.4317,-2.4307,-2.4329,-2.4367,-2.4402,-2.4447,-2.4397,-2.4469,-2.4471,-2.4456,-2.4534,-2.4538,-2.4607,-2.4511,-2.4513,-2.4514,0,-2.3854,-2.3907,-2.4001,-2.4062,-2.4085,-2.4131,-2.4191,-2.4238,-2.4291,-2.431,-2.4351,-2.4366,-2.4428,-2.4406,-2.4492,-2.4458,-2.4489,-2.4511,-2.4514,-2.4523,-2.4496,-2.4545,-2.463,-2.464,-2.453,-2.4529,-2.4527,0,-2.3887,-2.3982,-2.4051,-2.4079,-2.4151,-2.4183,-2.4214,-2.4265,-2.4302,-2.4355,-2.4379,-2.4438,-2.447,-2.4516,-2.4547,-2.4527,-2.4632,-2.4611,-2.4649,-2.4649,-2.4671,-2.4669,-2.4762,-2.4689,-2.4689,-2.4689,-2.4689,0,-2.3959,-2.4016,-2.4068,-2.411,-2.4176,-2.4208,-2.4272,-2.4304,-2.435,-2.4399,-2.4416,-2.4462,-2.4499,-2.4551,-2.4575,-2.4645,-2.4659,-2.4676,-2.4682,-2.4675,-2.4673,-2.4696,-2.4693,-2.4692,-2.4691,-2.4691,-2.469,0,-2.4007,-2.4044,-2.4121,-2.4183,-2.42,-2.4246,-2.43,-2.4342,-2.4372,-2.4435,-2.4451,-2.4498,-2.456,-2.4595,-2.4672,-2.4689,-2.4766,-2.4769,-2.4749,-2.4752,-2.4789,-2.4785,-2.4901,-2.4919,-2.4833,-2.4833,-2.4834,0,-2.4051,-2.4096,-2.4164,-2.4198,-2.4231,-2.4286,-2.4324,-2.4357,-2.4396,-2.4461,-2.4496,-2.4559,-2.4611,-2.4709,-2.475,-2.481,-2.4815,-2.4852,-2.4824,-2.4817,-2.4818,-2.4815,-2.482,-2.4857,-2.4858,-2.4858,-2.4859,0,-2.4125,-2.4141,-2.4195,-2.4256,-2.4301,-2.435,-2.4399,-2.4426,-2.4468,-2.4511,-2.4575,-2.4615,-2.4696,-2.4758,-2.4822,-2.4854,-2.4864,-2.4867,-2.488,-2.4873,-2.486,-2.4869,-2.4763,-2.4864,-2.4864,-2.4863,-2.4863,-2.4863,-2.4173,-2.4214,-2.4269,-2.4329,-2.437,-2.4416,-2.446,-2.4496,-2.455,-2.4618,-2.4634,-2.4702,-2.4755,-2.4842,-2.4876,-2.493,-2.4924,-2.4941,-2.4946,-2.495,-2.4952,-2.4851,-2.4942,-2.4941,-2.4941,-2.4941,-2.4941,0,-2.4249,-2.4285,-2.434,-2.4409,-2.4457,-2.4462,-2.4517,-2.4557,-2.4616,-2.4666,-2.4717,-2.4792,-2.4853,-2.49,-2.4963,-2.4997,-2.5003,-2.5012,-2.5011,-2.5019,-2.4953,-2.4937,-2.5007,-2.5007,-2.5007,-2.5007,-2.5007,-2.5007,-2.4294,-2.4365,-2.4388,-2.448,-2.4516,-2.4583,-2.4615,-2.4657,-2.4697,-2.478,-2.4831,-2.4861,-2.491,-2.4977,-2.5034,-2.5047,-2.507,-2.5079,-2.5092,-2.503,-2.5023,-2.5016,-2.5001,-2.5083,-2.5083,-2.5153,-2.5153,-2.5154]}]]